Weather History for KPGA - March, 2012

Change the Weather History Date:

Thursday, March 8, 2012

  Actual Average Record
Temperature  
Mean Temperature 46 °F -  
Max Temperature 57 °F 57 °F 76 °F (1972)
Min Temperature 35 °F 36 °F 20 °F (1969)
Degree Days  
Heating Degree Days 19    
Moisture  
Dew Point 16 °F    
Average Humidity 31    
Maximum Humidity 52    
Minimum Humidity 16    
Precipitation  
Precipitation 0.00 in - - ()
Sea Level Pressure  
Sea Level Pressure 30.24 in    
Wind  
Wind Speed 4 mph (ENE)    
Max Wind Speed 7 mph    
Max Gust Speed -    
Visibility 10 miles    
Events      
Averages and records for this station are not official NWS values.
T = Trace of Precipitation, MM = Missing Value Source: NWS Daily Summary

Daily Weather History Graph

Daily Weather History Graph

Search for Another Location

Airport or City:

Trip Planner

Search our weather history database for the weather conditions in past years. The results will help you decide how hot, cold, wet, or windy it might be!

Date:

Astronomy

Mar. 08, 2012 Rise Set
Actual Time 6:46 AM MST 6:27 PM MST
Civil Twilight 6:20 AM MST 6:53 PM MST
Nautical Twilight 5:50 AM MST 7:23 PM MST
Astronomical Twilight 5:20 AM MST 7:53 PM MST
Moon 7:16 PM MST (3/8) 6:34 AM MST (3/8)
Length of Visible Light 12h 32m
Length of Day
11h 41m
Full, 100% of the Moon is Illuminated
Mar 8
Full
Mar 14
Last Quarter
Mar 22
New
Mar 30
First Quarter
Apr 6
Full

Hourly Weather History & Observations

Time (MST) Temp. Windchill Dew Point Humidity Pressure Visibility Wind Dir Wind Speed Gust Speed Precip Events Conditions
12:53 AM 39.9 °F 35.8 °F 19.0 °F 43% 30.04 in 10.0 mi WNW 5.8 mph - N/A   Clear
1:53 AM 39.0 °F - 19.9 °F 46% 30.07 in 10.0 mi Calm Calm - N/A   Clear
2:53 AM 37.9 °F - 19.9 °F 48% 30.08 in 10.0 mi Calm Calm - N/A   Clear
3:53 AM 37.9 °F 35.5 °F 19.9 °F 48% 30.10 in 10.0 mi NW 3.5 mph - N/A   Clear
4:53 AM 37.9 °F 32.7 °F 19.0 °F 47% 30.12 in 10.0 mi NW 6.9 mph - N/A   Clear
5:53 AM 39.0 °F 34.8 °F 18.0 °F 43% 30.14 in 10.0 mi NW 5.8 mph - N/A   Clear
6:53 AM 35.1 °F 30.1 °F 19.0 °F 52% 30.20 in 10.0 mi SSE 5.8 mph - N/A   Clear
7:53 AM 39.9 °F 37.8 °F 19.9 °F 45% 30.23 in 10.0 mi South 3.5 mph - N/A   Clear
8:53 AM 45.0 °F 43.5 °F 19.0 °F 36% 30.25 in 10.0 mi NNW 3.5 mph - N/A   Clear
9:53 AM 48.9 °F - 19.9 °F 32% 30.27 in 10.0 mi NNW 4.6 mph - N/A   Clear
10:53 AM 52.0 °F - 18.0 °F 26% 30.28 in 10.0 mi ENE 4.6 mph - N/A   Clear
11:53 AM 53.1 °F - 17.1 °F 24% 30.29 in 10.0 mi ESE 6.9 mph - N/A   Clear
12:53 PM 55.0 °F - 16.0 °F 22% 30.27 in 10.0 mi East 5.8 mph - N/A   Clear
1:53 PM 57.0 °F - 15.1 °F 19% 30.26 in 10.0 mi Variable 4.6 mph - N/A   Clear
2:53 PM 57.0 °F - 14.0 °F 18% 30.25 in 10.0 mi NNE 6.9 mph - N/A   Clear
3:53 PM 57.9 °F - 14.0 °F 18% 30.26 in 10.0 mi NE 6.9 mph - N/A   Clear
4:53 PM 57.9 °F - 12.0 °F 16% 30.26 in 10.0 mi ENE 5.8 mph - N/A   Clear
5:53 PM 55.9 °F - 12.0 °F 18% 30.28 in 10.0 mi ENE 3.5 mph - N/A   Clear
6:53 PM 52.0 °F - 12.9 °F 21% 30.32 in 10.0 mi ESE 3.5 mph - N/A   Clear
7:53 PM 51.1 °F - 12.9 °F 22% 30.32 in 10.0 mi South 3.5 mph - N/A   Clear
8:53 PM 48.9 °F - 12.0 °F 23% 30.35 in 10.0 mi South 3.5 mph - N/A   Clear
9:53 PM 45.0 °F 42.6 °F 12.9 °F 27% 30.36 in 10.0 mi SW 4.6 mph - N/A   Clear
10:53 PM 44.1 °F 42.5 °F 12.0 °F 27% 30.36 in 9.0 mi NNE 3.5 mph - N/A   Clear
11:53 PM 39.9 °F 36.7 °F 12.9 °F 33% 30.37 in 10.0 mi SSE 4.6 mph - N/A   Clear